Champaign, IL

6:20 PM CST on November 22, 2017 (GMT -0600)
Univ Of Illinois-Willard

Weather History for KCMI - January, 2013

Change the Weather History Date:

Saturday, January 5, 2013

  Actual Average Record
Temperature  
Mean Temperature 26 °F 25 °F  
Max Temperature 34 °F 33 °F 57 °F (1998)
Min Temperature 17 °F 18 °F -16 °F (1999)
Degree Days  
Heating Degree Days 40 40  
Month to date heating degree days 196  
Since 1 July heating degree days 2477  
Cooling Degree Days 0 0  
Month to date cooling degree days 0  
Year to date cooling degree days 0  
Moisture  
Dew Point 26 °F    
Average Humidity 86    
Maximum Humidity 96    
Minimum Humidity 75    
Precipitation  
Precipitation 0.00 in 0.09 in 1.10 in (2005)
Month to date precipitation 0.45  
Year to date precipitation 0.45  
Sea Level Pressure  
Sea Level Pressure 30.21 in    
Wind  
Wind Speed 9 mph (SSW)    
Max Wind Speed 16 mph    
Max Gust Speed -    
Visibility 7 miles    
Events Snow    
T = Trace of Precipitation, MM = Missing Value Source: NWS Daily Summary

Daily Weather History Graph

Daily Weather History Graph

Search for Another Location

Airport or City:

Trip Planner

Search our weather history database for the weather conditions in past years. The results will help you decide how hot, cold, wet, or windy it might be!

Date:

Astronomy

Jan. 05, 2013 Rise Set
Actual Time 7:15 AM CST 4:42 PM CST
Civil Twilight 6:45 AM CST 5:12 PM CST
Nautical Twilight 6:11 AM CST 5:46 PM CST
Astronomical Twilight 5:38 AM CST 6:19 PM CST
Moon 12:21 AM CST (1/5) 11:31 AM CST (1/5)
Length of Visible Light 10h 27m
Length of Day
9h 27m
Last Quarter, 44% of the Moon is Illuminated
Jan 5
Last Quarter
Jan 11
New
Jan 18
First Quarter
Jan 26
Full
Feb 3
Last Quarter

Hourly Weather History & Observations

Time (CST) Temp. Windchill Dew Point Humidity Pressure Visibility Wind Dir Wind Speed Gust Speed Precip Events Conditions
12:53 AM 17.1 °F 6.6 °F 15.1 °F 92% 30.32 in 7.0 mi SSW 8.1 mph - N/A   Clear
1:53 AM 19.0 °F 8.2 °F 16.0 °F 88% 30.32 in 7.0 mi SSW 9.2 mph - N/A   Clear
2:53 AM 19.0 °F 9.0 °F 16.0 °F 88% 30.32 in 7.0 mi SSW 8.1 mph - N/A   Clear
3:53 AM 19.0 °F 10.0 °F 16.0 °F 88% 30.31 in 7.0 mi South 6.9 mph - N/A   Clear
4:53 AM 18.0 °F 6.9 °F 15.1 °F 88% 30.31 in 7.0 mi SSW 9.2 mph - N/A   Clear
5:53 AM 19.0 °F 11.1 °F 15.1 °F 85% 30.29 in 8.0 mi South 5.8 mph - N/A   Clear
6:53 AM 17.1 °F 7.6 °F 14.0 °F 88% 30.30 in 8.0 mi South 6.9 mph - N/A   Clear
7:53 AM 21.0 °F 11.4 °F 18.0 °F 88% 30.30 in 8.0 mi South 8.1 mph - N/A   Scattered Clouds
8:53 AM 27.0 °F 16.7 °F 21.9 °F 81% 30.30 in 10.0 mi SSW 11.5 mph - N/A   Clear
9:53 AM 30.0 °F 21.1 °F 24.1 °F 79% 30.28 in 10.0 mi SSW 10.4 mph - N/A   Scattered Clouds
10:53 AM 32.0 °F 22.5 °F 26.1 °F 79% 30.28 in 10.0 mi SSW 12.7 mph - N/A   Clear
11:53 AM 34.0 °F 25.5 °F 27.0 °F 75% 30.24 in 10.0 mi SSW 11.5 mph - N/A   Overcast
12:51 PM 33.8 °F 23.9 °F 28.4 °F 81% 30.20 in 1.0 mi WSW 15.0 mph - 0.00 in Snow Light Snow
12:53 PM 34.0 °F 23.8 °F 28.9 °F 82% 30.23 in 1.0 mi WSW 16.1 mph - 0.00 in Snow Light Snow
1:07 PM 33.8 °F 26.4 °F 30.2 °F 87% 30.19 in 1.2 mi WSW 9.2 mph - 0.00 in Snow Light Snow
1:24 PM 33.8 °F 27.0 °F 30.2 °F 87% 30.17 in 1.2 mi WSW 8.1 mph - 0.00 in   Overcast
1:30 PM 33.8 °F 28.6 °F 32.0 °F 93% 30.17 in 6.0 mi WSW 5.8 mph - 0.00 in   Overcast
1:53 PM 33.1 °F 26.1 °F 32.0 °F 96% 30.20 in 7.0 mi SSW 8.1 mph - 0.00 in   Overcast
2:00 PM 33.8 °F 27.7 °F 32.0 °F 93% 30.16 in 8.0 mi SSW 6.9 mph - N/A   Overcast
2:14 PM 33.8 °F 28.6 °F 32.0 °F 93% 30.16 in 8.0 mi SW 5.8 mph - N/A   Overcast
2:53 PM 34.0 °F 28.8 °F 32.0 °F 92% 30.18 in 8.0 mi South 5.8 mph - N/A   Overcast
3:53 PM 34.0 °F 26.6 °F 30.9 °F 89% 30.17 in 7.0 mi South 9.2 mph - N/A   Overcast
4:53 PM 34.0 °F 26.0 °F 30.9 °F 89% 30.16 in 9.0 mi South 10.4 mph - N/A   Overcast
5:53 PM 34.0 °F 25.5 °F 30.0 °F 85% 30.16 in 10.0 mi South 11.5 mph - N/A   Overcast
6:53 PM 34.0 °F 24.6 °F 28.9 °F 82% 30.16 in 10.0 mi South 13.8 mph - N/A   Overcast
7:53 PM 34.0 °F 24.6 °F 30.0 °F 85% 30.15 in 9.0 mi South 13.8 mph - N/A   Overcast
8:53 PM 34.0 °F 25.0 °F 30.0 °F 85% 30.13 in 8.0 mi SSW 12.7 mph - 0.00 in Snow Light Snow
9:53 PM 34.0 °F 25.0 °F 30.0 °F 85% 30.11 in 8.0 mi South 12.7 mph - 0.00 in Snow Light Snow
10:53 PM 34.0 °F 24.6 °F 30.0 °F 85% 30.10 in 9.0 mi SSW 13.8 mph - 0.00 in   Overcast
11:53 PM 34.0 °F 24.6 °F 30.0 °F 85% 30.07 in 10.0 mi SSW 13.8 mph - N/A   Overcast